| time (UTC) | temp C | wind direction | speed KPH | gust KPH | rain 1hr cm | rain 24hr cm | rain mn cm | humidity % | barometer mb |
| 20260507094512 | 7 | 231 | 0.0 | 3.2 | 0.00 | 0.00 | 0.00 | 73 | 1012.6 |
| 20260507094007 | 7 | 89 | 0.0 | 4.8 | 0.00 | 0.00 | 0.00 | 73 | 1012.8 |
| 20260507093505 | 7 | 294 | 0.0 | 8.0 | 0.00 | 0.00 | 0.00 | 72 | 1012.8 |
| 20260507093007 | 7 | 87 | 0.0 | 9.7 | 0.00 | 0.00 | 0.00 | 72 | 1012.9 |
| 20260507092507 | 7 | 249 | 1.6 | 9.7 | 0.00 | 0.00 | 0.00 | 72 | 1012.9 |
| 20260507092009 | 7 | 276 | 1.6 | 6.4 | 0.00 | 0.00 | 0.00 | 72 | 1012.9 |
| 20260507091514 | 7 | 279 | 0.0 | 14.5 | 0.00 | 0.00 | 0.00 | 71 | 1012.9 |
| 20260507091014 | 7 | 167 | 3.2 | 14.5 | 0.00 | 0.00 | 0.00 | 71 | 1013.0 |
| 20260507090504 | 8 | 344 | 1.6 | 14.5 | 0.00 | 0.00 | 0.00 | 70 | 1013.1 |
| 20260507090016 | 7 | 251 | 1.6 | 14.5 | 0.00 | 0.00 | 0.00 | 70 | 1013.1 |
| 20260507085503 | 7 | 246 | 1.6 | 6.4 | 0.00 | 0.00 | 0.00 | 70 | 1013.2 |
| 20260507085007 | 8 | 289 | 1.6 | 11.3 | 0.00 | 0.00 | 0.00 | 70 | 1013.3 |
| 20260507084521 | 8 | 111 | 0.0 | 11.3 | 0.00 | 0.00 | 0.00 | 69 | 1013.3 |
| 20260507084004 | 8 | 158 | 0.0 | 11.3 | 0.00 | 0.00 | 0.00 | 69 | 1013.4 |
| 20260507083507 | 8 | 239 | 3.2 | 11.3 | 0.00 | 0.00 | 0.00 | 68 | 1013.4 |
| 20260507083020 | 8 | 265 | 1.6 | 11.3 | 0.00 | 0.00 | 0.00 | 69 | 1013.5 |
| 20260507082503 | 7 | 107 | 0.0 | 11.3 | 0.00 | 0.00 | 0.00 | 68 | 1013.5 |
| 20260507082010 | 7 | 266 | 0.0 | 11.3 | 0.00 | 0.00 | 0.00 | 68 | 1013.6 |
| 20260507081522 | 8 | 28 | 1.6 | 9.7 | 0.00 | 0.00 | 0.00 | 67 | 1013.6 |
| 20260507081007 | 7 | 346 | 3.2 | 9.7 | 0.00 | 0.00 | 0.00 | 66 | 1013.7 |
| 20260507080506 | 7 | 236 | 0.0 | 6.4 | 0.00 | 0.00 | 0.00 | 66 | 1013.7 |
| 20260507080016 | 7 | 207 | 0.0 | 6.4 | 0.00 | 0.00 | 0.00 | 65 | 1013.9 |
| 20260507075508 | 7 | 218 | 0.0 | 4.8 | 0.00 | 0.00 | 0.00 | 65 | 1013.9 |
| 20260507075004 | 7 | 186 | 0.0 | 6.4 | 0.00 | 0.00 | 0.00 | 65 | 1014.0 |
| 20260507074512 | 7 | 265 | 0.0 | 12.9 | 0.00 | 0.00 | 0.00 | 64 | 1014.0 |
| 20260507074004 | 7 | 285 | 1.6 | 12.9 | 0.00 | 0.00 | 0.00 | 64 | 1014.0 |
| 20260507073508 | 7 | 225 | 0.0 | 4.8 | 0.00 | 0.00 | 0.00 | 63 | 1014.1 |
| 20260507073016 | 7 | 277 | 1.6 | 4.8 | 0.00 | 0.00 | 0.00 | 63 | 1014.1 |
| 20260507072507 | 7 | 251 | 0.0 | 6.4 | 0.00 | 0.00 | 0.00 | 62 | 1014.2 |
| 20260507072008 | 7 | 248 | 0.0 | 6.4 | 0.00 | 0.00 | 0.00 | 62 | 1014.3 |
| 20260507071522 | 7 | 274 | 0.0 | 1.6 | 0.00 | 0.00 | 0.00 | 61 | 1014.3 |
| 20260507071008 | 7 | 195 | 0.0 | 4.8 | 0.00 | 0.00 | 0.00 | 60 | 1014.3 |
| 20260507070504 | 7 | 207 | 0.0 | 4.8 | 0.00 | 0.00 | 0.00 | 59 | 1014.4 |
| 20260507070026 | 7 | 184 | 0.0 | 3.2 | 0.00 | 0.00 | 0.00 | 60 | 1014.4 |
| 20260507065503 | 7 | 250 | 0.0 | 1.6 | 0.00 | 0.00 | 0.00 | 61 | 1014.6 |
| 20260507065006 | 7 | 283 | 0.0 | 1.6 | 0.00 | 0.00 | 0.00 | 59 | 1014.7 |
| 20260507064524 | 7 | 279 | 0.0 | 3.2 | 0.00 | 0.00 | 0.00 | 58 | 1014.8 |
| 20260507064007 | 7 | 279 | 0.0 | 3.2 | 0.00 | 0.00 | 0.00 | 57 | 1014.8 |
| 20260507063508 | 7 | 163 | 0.0 | 3.2 | 0.00 | 0.00 | 0.00 | 56 | 1014.9 |
| 20260507063024 | 7 | 232 | 0.0 | 3.2 | 0.00 | 0.00 | 0.00 | 56 | 1014.9 |
| 20260507062507 | 7 | 229 | 0.0 | 3.2 | 0.00 | 0.00 | 0.00 | 56 | 1014.9 |
| 20260507062007 | 7 | 229 | 0.0 | 3.2 | 0.00 | 0.00 | 0.00 | 56 | 1014.9 |
| 20260507061518 | 6 | 217 | 0.0 | 1.6 | 0.00 | 0.00 | 0.00 | 58 | 1015.0 |
| 20260507061007 | 6 | 294 | 0.0 | 1.6 | 0.00 | 0.00 | 0.00 | 57 | 1015.0 |
| 20260507060506 | 6 | 293 | 0.0 | 0.0 | 0.00 | 0.00 | 0.00 | 58 | 1015.1 |
| 20260507060017 | 6 | 293 | 0.0 | 0.0 | 0.00 | 0.00 | 0.00 | 57 | 1015.1 |
| 20260507055510 | 6 | 293 | 0.0 | 0.0 | 0.00 | 0.00 | 0.00 | 58 | 1015.2 |
| 20260507055007 | 6 | 293 | 0.0 | 0.0 | 0.00 | 0.00 | 0.00 | 60 | 1015.2 |
| 20260507054524 | 6 | 292 | 0.0 | 0.0 | 0.00 | 0.00 | 0.00 | 62 | 1015.2 |
| 20260507054007 | 6 | 292 | 0.0 | 0.0 | 0.00 | 0.00 | 0.00 | 63 | 1015.3 |
| 20260507053509 | 6 | 293 | 0.0 | 0.0 | 0.00 | 0.00 | 0.00 | 64 | 1015.3 |
| 20260507053026 | 6 | 293 | 0.0 | 0.0 | 0.00 | 0.00 | 0.00 | 65 | 1015.3 |
| 20260507052505 | 6 | 293 | 0.0 | 0.0 | 0.00 | 0.00 | 0.00 | 66 | 1015.2 |
| 20260507052012 | 6 | 292 | 0.0 | 0.0 | 0.00 | 0.00 | 0.00 | 64 | 1015.2 |
| 20260507051525 | 6 | 293 | 0.0 | 0.0 | 0.00 | 0.00 | 0.00 | 62 | 1015.3 |
| 20260507051008 | 6 | 293 | 0.0 | 0.0 | 0.00 | 0.00 | 0.00 | 61 | 1015.4 |
| 20260507050506 | 6 | 292 | 0.0 | 0.0 | 0.00 | 0.00 | 0.00 | 63 | 1015.4 |
| 20260507050023 | 6 | 292 | 0.0 | 0.0 | 0.00 | 0.00 | 0.00 | 59 | 1015.3 |
| 20260507045506 | 6 | 292 | 0.0 | 0.0 | 0.00 | 0.00 | 0.00 | 58 | 1015.3 |
| 20260507045006 | 6 | 293 | 0.0 | 0.0 | 0.00 | 0.00 | 0.00 | 59 | 1015.4 |
| 20260507044543 | 6 | 293 | 0.0 | 0.0 | 0.00 | 0.00 | 0.00 | 58 | 1015.4 |
| 20260507044008 | 7 | 293 | 0.0 | 0.0 | 0.00 | 0.00 | 0.00 | 55 | 1015.5 |
| 20260507043509 | 7 | 293 | 0.0 | 0.0 | 0.00 | 0.00 | 0.00 | 54 | 1015.5 |
| 20260507043018 | 7 | 293 | 0.0 | 0.0 | 0.00 | 0.00 | 0.00 | 53 | 1015.5 |
| 20260507042510 | 7 | 292 | 0.0 | 0.0 | 0.00 | 0.00 | 0.00 | 56 | 1015.5 |
| 20260507042009 | 7 | 293 | 0.0 | 0.0 | 0.00 | 0.00 | 0.00 | 54 | 1015.7 |
| 20260507041507 | 7 | 292 | 0.0 | 0.0 | 0.00 | 0.00 | 0.00 | 54 | 1015.7 |
| 20260507041004 | 7 | 292 | 0.0 | 0.0 | 0.00 | 0.00 | 0.00 | 57 | 1015.7 |
| 20260507040504 | 7 | 292 | 0.0 | 0.0 | 0.00 | 0.00 | 0.00 | 55 | 1015.7 |
| 20260507040009 | 6 | 292 | 0.0 | 0.0 | 0.00 | 0.00 | 0.00 | 58 | 1015.8 |
| 20260507035507 | 6 | 293 | 0.0 | 0.0 | 0.00 | 0.00 | 0.00 | 59 | 1015.8 |
| 20260507035005 | 7 | 293 | 0.0 | 0.0 | 0.00 | 0.00 | 0.00 | 60 | 1015.8 |
| 20260507034507 | 7 | 292 | 0.0 | 0.0 | 0.00 | 0.00 | 0.00 | 57 | 1015.9 |
| 20260507034003 | 7 | 293 | 0.0 | 0.0 | 0.00 | 0.00 | 0.00 | 57 | 1015.8 |
| 20260507033505 | 7 | 292 | 0.0 | 0.0 | 0.00 | 0.00 | 0.00 | 53 | 1015.8 |
| 20260507033004 | 7 | 292 | 0.0 | 1.6 | 0.00 | 0.00 | 0.00 | 55 | 1015.8 |
| 20260507032504 | 7 | 292 | 0.0 | 1.6 | 0.00 | 0.00 | 0.00 | 53 | 1015.8 |
| 20260507032003 | 7 | 293 | 0.0 | 1.6 | 0.00 | 0.00 | 0.00 | 55 | 1015.8 |
| 20260507031503 | 8 | 296 | 0.0 | 0.0 | 0.00 | 0.00 | 0.00 | 53 | 1015.8 |
| 20260507031006 | 8 | 296 | 0.0 | 0.0 | 0.00 | 0.00 | 0.00 | 51 | 1015.8 |
| 20260507030509 | 8 | 296 | 0.0 | 0.0 | 0.00 | 0.00 | 0.00 | 49 | 1015.8 |
| 20260507030007 | 8 | 296 | 0.0 | 0.0 | 0.00 | 0.00 | 0.00 | 47 | 1015.8 |
| 20260507025503 | 8 | 296 | 0.0 | 0.0 | 0.00 | 0.00 | 0.00 | 48 | 1015.8 |
| 20260507025006 | 8 | 297 | 0.0 | 0.0 | 0.00 | 0.00 | 0.00 | 46 | 1015.9 |
| 20260507024505 | 8 | 296 | 0.0 | 0.0 | 0.00 | 0.00 | 0.00 | 47 | 1015.8 |
| 20260507024005 | 8 | 296 | 0.0 | 0.0 | 0.00 | 0.00 | 0.00 | 47 | 1015.8 |
| 20260507023505 | 9 | 296 | 0.0 | 0.0 | 0.00 | 0.00 | 0.00 | 47 | 1015.7 |
| 20260507023011 | 9 | 296 | 0.0 | 0.0 | 0.00 | 0.00 | 0.00 | 47 | 1015.7 |
| 20260507022504 | 9 | 296 | 0.0 | 0.0 | 0.00 | 0.00 | 0.00 | 46 | 1015.6 |
| 20260507022004 | 9 | 296 | 0.0 | 0.0 | 0.00 | 0.00 | 0.00 | 42 | 1015.5 |
| 20260507021514 | 10 | 296 | 0.0 | 0.0 | 0.00 | 0.00 | 0.00 | 42 | 1015.5 |
| 20260507021007 | 10 | 296 | 0.0 | 0.0 | 0.00 | 0.00 | 0.00 | 41 | 1015.5 |
| 20260507020503 | 10 | 296 | 0.0 | 0.0 | 0.00 | 0.00 | 0.00 | 42 | 1015.5 |
| 20260507020010 | 10 | 296 | 0.0 | 0.0 | 0.00 | 0.00 | 0.00 | 39 | 1015.5 |
| 20260507015503 | 10 | 296 | 0.0 | 0.0 | 0.00 | 0.00 | 0.00 | 41 | 1015.5 |
| 20260507015006 | 10 | 296 | 0.0 | 0.0 | 0.00 | 0.00 | 0.00 | 40 | 1015.5 |
| 20260507014508 | 11 | 296 | 0.0 | 0.0 | 0.00 | 0.00 | 0.00 | 40 | 1015.5 |
| 20260507014004 | 11 | 297 | 0.0 | 0.0 | 0.00 | 0.00 | 0.00 | 38 | 1015.4 |
| 20260507013504 | 11 | 296 | 0.0 | 0.0 | 0.00 | 0.00 | 0.00 | 37 | 1015.4 |
| 20260507013011 | 11 | 296 | 0.0 | 0.0 | 0.00 | 0.00 | 0.00 | 37 | 1015.5 |
| 20260507012502 | 11 | 296 | 0.0 | 0.0 | 0.00 | 0.00 | 0.00 | 35 | 1015.4 |
| 20260507012007 | 11 | 296 | 0.0 | 0.0 | 0.00 | 0.00 | 0.00 | 35 | 1015.4 |
| 20260507011509 | 12 | 296 | 0.0 | 0.0 | 0.00 | 0.00 | 0.00 | 34 | 1015.4 |
| 20260507011003 | 12 | 296 | 0.0 | 1.6 | 0.00 | 0.00 | 0.00 | 35 | 1015.4 |
| 20260507010506 | 12 | 296 | 0.0 | 1.6 | 0.00 | 0.00 | 0.00 | 34 | 1015.4 |
| 20260507010006 | 12 | 297 | 0.0 | 1.6 | 0.00 | 0.00 | 0.00 | 36 | 1015.5 |
| 20260507005508 | 13 | 296 | 0.0 | 3.2 | 0.00 | 0.00 | 0.00 | 33 | 1015.4 |
| 20260507005003 | 13 | 296 | 0.0 | 4.8 | 0.00 | 0.00 | 0.00 | 31 | 1015.5 |
| 20260507004511 | 13 | 296 | 1.6 | 4.8 | 0.00 | 0.00 | 0.00 | 33 | 1015.5 |
| 20260507004008 | 13 | 250 | 1.6 | 6.4 | 0.00 | 0.00 | 0.00 | 31 | 1015.5 |
| 20260507003504 | 13 | 320 | 0.0 | 8.0 | 0.00 | 0.00 | 0.00 | 31 | 1015.5 |
| 20260507003019 | 13 | 320 | 3.2 | 8.0 | 0.00 | 0.00 | 0.00 | 30 | 1015.6 |
| 20260507002506 | 13 | 309 | 1.6 | 8.0 | 0.00 | 0.00 | 0.00 | 31 | 1015.6 |
| 20260507002004 | 13 | 332 | 1.6 | 8.0 | 0.00 | 0.00 | 0.00 | 32 | 1015.6 |
| 20260507001520 | 14 | 348 | 0.0 | 9.7 | 0.00 | 0.00 | 0.00 | 32 | 1015.7 |
| 20260507001008 | 14 | 335 | 3.2 | 9.7 | 0.00 | 0.00 | 0.00 | 30 | 1015.7 |
| 20260507000506 | 14 | 327 | 1.6 | 14.5 | 0.00 | 0.00 | 0.00 | 32 | 1015.8 |
| 20260507000012 | 14 | 321 | 3.2 | 14.5 | 0.00 | 0.00 | 0.00 | 30 | 1015.8 |
| 20260506235504 | 15 | 312 | 1.6 | 12.9 | 0.00 | 0.00 | 0.00 | 31 | 1015.8 |
| 20260506235008 | 14 | 323 | 3.2 | 12.9 | 0.00 | 0.00 | 0.00 | 30 | 1015.8 |
| 20260506234510 | 15 | 328 | 4.8 | 14.5 | 0.00 | 0.00 | 0.00 | 29 | 1015.9 |
| 20260506234003 | 15 | 277 | 4.8 | 14.5 | 0.00 | 0.00 | 0.00 | 31 | 1015.9 |
| 20260506233506 | 15 | 317 | 4.8 | 14.5 | 0.00 | 0.00 | 0.00 | 31 | 1016.0 |
| 20260506233012 | 15 | 340 | 3.2 | 11.3 | 0.00 | 0.00 | 0.00 | 28 | 1016.0 |
| 20260506232508 | 15 | 348 | 3.2 | 19.3 | 0.00 | 0.00 | 0.00 | 30 | 1016.0 |
| 20260506232007 | 15 | 19 | 8.0 | 25.7 | 0.00 | 0.00 | 0.00 | 30 | 1016.0 |
| 20260506231513 | 15 | 327 | 11.3 | 25.7 | 0.00 | 0.00 | 0.00 | 29 | 1016.0 |
| 20260506231007 | 15 | 5 | 1.6 | 6.4 | 0.00 | 0.00 | 0.00 | 28 | 1016.0 |
| 20260506230502 | 15 | 331 | 1.6 | 14.5 | 0.00 | 0.00 | 0.00 | 34 | 1016.1 |
| 20260506230010 | 14 | 329 | 6.4 | 14.5 | 0.00 | 0.00 | 0.00 | 31 | 1016.1 |
| 20260506225507 | 14 | 322 | 3.2 | 12.9 | 0.00 | 0.00 | 0.00 | 30 | 1016.1 |
| 20260506225007 | 15 | 19 | 1.6 | 12.9 | 0.00 | 0.00 | 0.00 | 32 | 1016.2 |
| 20260506224516 | 15 | 333 | 1.6 | 14.5 | 0.00 | 0.00 | 0.00 | 32 | 1016.2 |
| 20260506224007 | 14 | 317 | 4.8 | 14.5 | 0.00 | 0.00 | 0.00 | 30 | 1016.2 |
| 20260506223504 | 14 | 321 | 3.2 | 12.9 | 0.00 | 0.00 | 0.00 | 30 | 1016.2 |
| 20260506223018 | 15 | 310 | 3.2 | 12.9 | 0.00 | 0.00 | 0.00 | 30 | 1016.3 |
| 20260506222505 | 15 | 334 | 3.2 | 9.7 | 0.00 | 0.00 | 0.00 | 27 | 1016.3 |
| 20260506222008 | 15 | 319 | 4.8 | 12.9 | 0.00 | 0.00 | 0.00 | 30 | 1016.4 |
| 20260506221514 | 15 | 263 | 4.8 | 14.5 | 0.00 | 0.00 | 0.00 | 32 | 1016.4 |
| 20260506221006 | 15 | 306 | 3.2 | 14.5 | 0.00 | 0.00 | 0.00 | 32 | 1016.5 |
| 20260506220507 | 15 | 278 | 4.8 | 12.9 | 0.00 | 0.00 | 0.00 | 31 | 1016.6 |
| 20260506220020 | 15 | 282 | 3.2 | 9.7 | 0.00 | 0.00 | 0.00 | 29 | 1016.5 |
| 20260506215507 | 15 | 325 | 3.2 | 16.1 | 0.00 | 0.00 | 0.00 | 29 | 1016.6 |
| 20260506215006 | 15 | 360 | 4.8 | 16.1 | 0.00 | 0.00 | 0.00 | 30 | 1016.7 |
| 20260506214518 | 15 | 317 | 4.8 | 11.3 | 0.00 | 0.00 | 0.00 | 32 | 1016.7 |
| 20260506214010 | 15 | 316 | 3.2 | 9.7 | 0.00 | 0.00 | 0.00 | 30 | 1016.7 |
| 20260506213511 | 15 | 342 | 3.2 | 14.5 | 0.00 | 0.00 | 0.00 | 32 | 1016.7 |
| 20260506213019 | 15 | 200 | 4.8 | 14.5 | 0.00 | 0.00 | 0.00 | 31 | 1016.8 |
| 20260506212508 | 15 | 301 | 1.6 | 9.7 | 0.00 | 0.00 | 0.00 | 34 | 1016.8 |
| 20260506212016 | 15 | 324 | 1.6 | 11.3 | 0.00 | 0.00 | 0.00 | 30 | 1016.9 |
| 20260506211513 | 16 | 220 | 6.4 | 14.5 | 0.00 | 0.00 | 0.00 | 27 | 1016.9 |
| 20260506211007 | 16 | 343 | 3.2 | 19.3 | 0.00 | 0.00 | 0.00 | 33 | 1017.0 |
| 20260506210506 | 15 | 227 | 8.0 | 19.3 | 0.00 | 0.00 | 0.00 | 30 | 1017.2 |
| 20260506210021 | 15 | 309 | 4.8 | 16.1 | 0.00 | 0.00 | 0.00 | 34 | 1017.4 |
| 20260506205511 | 16 | 315 | 6.4 | 16.1 | 0.00 | 0.00 | 0.00 | 34 | 1017.4 |
| 20260506205006 | 16 | 346 | 4.8 | 11.3 | 0.00 | 0.00 | 0.00 | 36 | 1017.4 |
| 20260506204520 | 16 | 242 | 1.6 | 9.7 | 0.00 | 0.00 | 0.00 | 33 | 1017.5 |
| 20260506204005 | 14 | 347 | 4.8 | 17.7 | 0.00 | 0.00 | 0.00 | 35 | 1017.5 |
| 20260506203509 | 14 | 327 | 4.8 | 17.7 | 0.00 | 0.00 | 0.00 | 35 | 1017.6 |
| 20260506203025 | 14 | 313 | 6.4 | 17.7 | 0.00 | 0.00 | 0.00 | 33 | 1017.7 |
| 20260506202506 | 13 | 344 | 6.4 | 14.5 | 0.00 | 0.00 | 0.00 | 34 | 1017.7 |
| 20260506202014 | 14 | 313 | 4.8 | 14.5 | 0.00 | 0.00 | 0.00 | 34 | 1017.8 |
| 20260506201522 | 15 | 327 | 3.2 | 14.5 | 0.00 | 0.00 | 0.00 | 34 | 1017.8 |
| 20260506201009 | 15 | 307 | 3.2 | 11.3 | 0.00 | 0.00 | 0.00 | 34 | 1017.8 |
| 20260506200513 | 15 | 346 | 1.6 | 11.3 | 0.00 | 0.00 | 0.00 | 29 | 1017.7 |
| 20260506200017 | 16 | 306 | 4.8 | 17.7 | 0.00 | 0.00 | 0.00 | 35 | 1017.9 |
| 20260506195507 | 15 | 333 | 4.8 | 17.7 | 0.00 | 0.00 | 0.00 | 36 | 1017.9 |
| 20260506195006 | 15 | 355 | 8.0 | 17.7 | 0.00 | 0.00 | 0.00 | 33 | 1017.9 |
| 20260506194522 | 14 | 355 | 3.2 | 8.0 | 0.00 | 0.00 | 0.00 | 34 | 1018.0 |
| 20260506194009 | 14 | 338 | 3.2 | 14.5 | 0.00 | 0.00 | 0.00 | 35 | 1018.0 |
| 20260506193507 | 14 | 344 | 6.4 | 14.5 | 0.00 | 0.00 | 0.00 | 32 | 1018.0 |
| 20260506193021 | 14 | 331 | 6.4 | 16.1 | 0.00 | 0.00 | 0.00 | 34 | 1018.1 |
| 20260506192510 | 15 | 266 | 6.4 | 19.3 | 0.00 | 0.00 | 0.00 | 32 | 1018.0 |
| 20260506192008 | 16 | 335 | 9.7 | 19.3 | 0.00 | 0.00 | 0.00 | 34 | 1018.1 |
| 20260506191510 | 15 | 331 | 4.8 | 16.1 | 0.00 | 0.00 | 0.00 | 38 | 1018.1 |
| 20260506191004 | 15 | 310 | 4.8 | 17.7 | 0.00 | 0.00 | 0.00 | 42 | 1018.2 |
| 20260506190503 | 13 | 310 | 3.2 | 19.3 | 0.00 | 0.00 | 0.00 | 36 | 1018.2 |
| 20260506190016 | 14 | 315 | 11.3 | 19.3 | 0.00 | 0.00 | 0.00 | 35 | 1018.3 |
| 20260506185503 | 15 | 360 | 4.8 | 14.5 | 0.00 | 0.00 | 0.00 | 35 | 1018.3 |
| 20260506185003 | 15 | 309 | 4.8 | 14.5 | 0.00 | 0.00 | 0.00 | 36 | 1018.3 |
| 20260506184512 | 15 | 332 | 4.8 | 11.3 | 0.00 | 0.00 | 0.00 | 36 | 1018.4 |
| 20260506184005 | 15 | 238 | 4.8 | 17.7 | 0.00 | 0.00 | 0.00 | 35 | 1018.5 |
| 20260506183508 | 14 | 329 | 4.8 | 17.7 | 0.00 | 0.00 | 0.00 | 36 | 1018.5 |
| 20260506183005 | 15 | 315 | 4.8 | 16.1 | 0.00 | 0.00 | 0.00 | 36 | 1018.5 |
| 20260506182503 | 14 | 330 | 4.8 | 16.1 | 0.00 | 0.00 | 0.00 | 37 | 1018.6 |
| 20260506182005 | 15 | 323 | 6.4 | 17.7 | 0.00 | 0.00 | 0.00 | 40 | 1018.6 |
| 20260506181504 | 13 | 119 | 3.2 | 17.7 | 0.00 | 0.00 | 0.00 | 35 | 1018.5 |
| 20260506181004 | 15 | 321 | 8.0 | 17.7 | 0.00 | 0.00 | 0.00 | 38 | 1018.5 |
| 20260506180504 | 14 | 320 | 4.8 | 17.7 | 0.00 | 0.00 | 0.00 | 41 | 1018.9 |
| 20260506180005 | 13 | 306 | 6.4 | 14.5 | 0.00 | 0.00 | 0.00 | 38 | 1018.8 |
| 20260506175506 | 13 | 318 | 4.8 | 12.9 | 0.00 | 0.00 | 0.00 | 42 | 1018.9 |
| 20260506175005 | 12 | 5 | 4.8 | 16.1 | 0.00 | 0.00 | 0.00 | 37 | 1018.9 |
| 20260506174517 | 12 | 349 | 3.2 | 16.1 | 0.00 | 0.00 | 0.00 | 38 | 1018.9 |
| 20260506174002 | 13 | 332 | 6.4 | 14.5 | 0.00 | 0.00 | 0.00 | 39 | 1019.0 |
| 20260506173505 | 13 | 347 | 3.2 | 14.5 | 0.00 | 0.00 | 0.00 | 39 | 1019.1 |
| 20260506173015 | 13 | 323 | 6.4 | 17.7 | 0.00 | 0.00 | 0.00 | 43 | 1019.2 |
| 20260506172504 | 12 | 312 | 4.8 | 17.7 | 0.00 | 0.00 | 0.00 | 40 | 1019.3 |
| 20260506172003 | 13 | 330 | 4.8 | 17.7 | 0.00 | 0.00 | 0.00 | 42 | 1019.4 |
| 20260506171511 | 13 | 326 | 0.0 | 12.9 | 0.00 | 0.00 | 0.00 | 39 | 1019.4 |
| 20260506171003 | 12 | 238 | 3.2 | 11.3 | 0.00 | 0.00 | 0.00 | 37 | 1019.4 |
| 20260506170505 | 12 | 227 | 1.6 | 14.5 | 0.00 | 0.00 | 0.00 | 42 | 1019.6 |
| 20260506170007 | 11 | 140 | 4.8 | 14.5 | 0.00 | 0.00 | 0.00 | 37 | 1019.6 |
| 20260506165504 | 12 | 305 | 3.2 | 11.3 | 0.00 | 0.00 | 0.00 | 37 | 1019.5 |
| 20260506165005 | 13 | 309 | 1.6 | 12.9 | 0.00 | 0.00 | 0.00 | 38 | 1019.5 |
| 20260506164506 | 11 | 169 | 3.2 | 19.3 | 0.00 | 0.00 | 0.00 | 37 | 1019.6 |
| 20260506164009 | 12 | 317 | 8.0 | 19.3 | 0.00 | 0.00 | 0.00 | 37 | 1019.7 |
| 20260506163512 | 13 | 350 | 4.8 | 19.3 | 0.00 | 0.00 | 0.00 | 38 | 1019.7 |
| 20260506163008 | 12 | 330 | 3.2 | 20.9 | 0.00 | 0.00 | 0.00 | 42 | 1019.7 |
| 20260506162507 | 11 | 330 | 3.2 | 20.9 | 0.00 | 0.00 | 0.00 | 38 | 1019.7 |
| 20260506162013 | 12 | 261 | 1.6 | 11.3 | 0.00 | 0.00 | 0.00 | 37 | 1019.7 |
| 20260506161511 | 11 | 331 | 6.4 | 11.3 | 0.00 | 0.00 | 0.00 | 42 | 1019.7 |
| 20260506161003 | 11 | 311 | 4.8 | 11.3 | 0.00 | 0.00 | 0.00 | 39 | 1019.7 |
| 20260506160506 | 12 | 311 | 3.2 | 11.3 | 0.00 | 0.00 | 0.00 | 45 | 1019.6 |
| 20260506160006 | 12 | 5 | 3.2 | 12.9 | 0.00 | 0.00 | 0.00 | 43 | 1019.6 |
| 20260506155503 | 11 | 310 | 4.8 | 12.9 | 0.00 | 0.00 | 0.00 | 43 | 1019.5 |
| 20260506155004 | 12 | 344 | 4.8 | 17.7 | 0.00 | 0.00 | 0.00 | 41 | 1019.5 |
| 20260506154510 | 11 | 215 | 3.2 | 17.7 | 0.00 | 0.00 | 0.00 | 44 | 1019.5 |
| 20260506154004 | 11 | 351 | 4.8 | 17.7 | 0.00 | 0.00 | 0.00 | 43 | 1019.5 |
| 20260506153505 | 11 | 306 | 4.8 | 11.3 | 0.00 | 0.00 | 0.00 | 43 | 1019.5 |
| 20260506153013 | 11 | 311 | 4.8 | 9.7 | 0.00 | 0.00 | 0.00 | 43 | 1019.6 |
| 20260506152505 | 11 | 328 | 3.2 | 11.3 | 0.00 | 0.00 | 0.00 | 41 | 1019.5 |
| 20260506152005 | 11 | 303 | 4.8 | 11.3 | 0.00 | 0.00 | 0.00 | 45 | 1019.5 |
| 20260506151517 | 11 | 336 | 3.2 | 8.0 | 0.00 | 0.00 | 0.00 | 42 | 1019.6 |
| 20260506151009 | 11 | 334 | 1.6 | 6.4 | 0.00 | 0.00 | 0.00 | 46 | 1019.6 |
| 20260506150507 | 11 | 339 | 3.2 | 8.0 | 0.00 | 0.00 | 0.00 | 45 | 1019.6 |
| 20260506150007 | 11 | 355 | 1.6 | 12.9 | 0.00 | 0.00 | 0.00 | 44 | 1019.6 |
| 20260506145505 | 11 | 297 | 4.8 | 12.9 | 0.00 | 0.00 | 0.00 | 45 | 1019.6 |
| 20260506145010 | 11 | 321 | 3.2 | 11.3 | 0.00 | 0.00 | 0.00 | 47 | 1019.6 |
| 20260506144506 | 10 | 316 | 3.2 | 11.3 | 0.00 | 0.00 | 0.00 | 49 | 1019.6 |
| 20260506144006 | 10 | 348 | 1.6 | 8.0 | 0.00 | 0.00 | 0.00 | 46 | 1019.5 |
| 20260506143504 | 10 | 320 | 1.6 | 8.0 | 0.00 | 0.00 | 0.00 | 47 | 1019.6 |
| 20260506143012 | 10 | 303 | 1.6 | 4.8 | 0.00 | 0.00 | 0.00 | 51 | 1019.5 |
| 20260506142505 | 10 | 346 | 0.0 | 4.8 | 0.00 | 0.00 | 0.00 | 54 | 1019.5 |
| 20260506142005 | 9 | 346 | 0.0 | 4.8 | 0.00 | 0.00 | 0.00 | 51 | 1019.5 |
| 20260506141511 | 9 | 350 | 1.6 | 4.8 | 0.00 | 0.00 | 0.00 | 48 | 1019.5 |
| 20260506141006 | 9 | 347 | 1.6 | 6.4 | 0.00 | 0.00 | 0.00 | 51 | 1019.4 |
| 20260506140507 | 8 | 334 | 3.2 | 6.4 | 0.00 | 0.00 | 0.00 | 49 | 1019.4 |
| 20260506140022 | 8 | 242 | 0.0 | 4.8 | 0.00 | 0.00 | 0.00 | 52 | 1019.3 |
| 20260506135507 | 8 | 340 | 1.6 | 11.3 | 0.00 | 0.00 | 0.00 | 53 | 1019.3 |
| 20260506135006 | 8 | 331 | 3.2 | 11.3 | 0.00 | 0.00 | 0.00 | 52 | 1019.3 |
| 20260506134514 | 7 | 343 | 3.2 | 6.4 | 0.00 | 0.00 | 0.00 | 54 | 1019.2 |
| 20260506134010 | 7 | 309 | 1.6 | 8.0 | 0.00 | 0.00 | 0.00 | 56 | 1019.2 |
| 20260506133507 | 7 | 305 | 4.8 | 8.0 | 0.00 | 0.00 | 0.00 | 55 | 1019.1 |
| 20260506133018 | 7 | 309 | 3.2 | 8.0 | 0.00 | 0.00 | 0.00 | 54 | 1019.2 |
| 20260506132509 | 7 | 346 | 3.2 | 8.0 | 0.00 | 0.00 | 0.00 | 56 | 1019.1 |
| 20260506132007 | 7 | 348 | 1.6 | 8.0 | 0.00 | 0.00 | 0.00 | 56 | 1019.0 |
| 20260506131517 | 6 | 346 | 1.6 | 6.4 | 0.00 | 0.00 | 0.00 | 58 | 1018.9 |
| 20260506131006 | 6 | 322 | 3.2 | 6.4 | 0.00 | 0.00 | 0.00 | 59 | 1018.8 |
| 20260506130509 | 6 | 327 | 3.2 | 6.4 | 0.00 | 0.00 | 0.00 | 59 | 1018.8 |
| 20260506130020 | 6 | 298 | 3.2 | 4.8 | 0.00 | 0.00 | 0.00 | 60 | 1018.8 |
| 20260506125505 | 6 | 345 | 1.6 | 4.8 | 0.00 | 0.00 | 0.00 | 62 | 1018.8 |
| 20260506125007 | 6 | 344 | 1.6 | 4.8 | 0.00 | 0.00 | 0.00 | 64 | 1018.8 |
| 20260506124519 | 5 | 344 | 0.0 | 4.8 | 0.00 | 0.00 | 0.00 | 64 | 1018.8 |
| 20260506124010 | 5 | 344 | 0.0 | 6.4 | 0.00 | 0.00 | 0.00 | 63 | 1018.6 |
| 20260506123507 | 5 | 346 | 1.6 | 6.4 | 0.00 | 0.00 | 0.00 | 63 | 1018.5 |
| 20260506123015 | 5 | 341 | 1.6 | 4.8 | 0.00 | 0.00 | 0.00 | 65 | 1018.5 |
| 20260506122507 | 5 | 341 | 1.6 | 4.8 | 0.00 | 0.00 | 0.00 | 66 | 1018.4 |
| 20260506122006 | 4 | 341 | 0.0 | 3.2 | 0.00 | 0.00 | 0.00 | 68 | 1018.3 |
| 20260506121510 | 3 | 341 | 0.0 | 3.2 | 0.00 | 0.00 | 0.00 | 69 | 1018.3 |
| 20260506121004 | 3 | 341 | 0.0 | 3.2 | 0.00 | 0.00 | 0.00 | 71 | 1018.2 |
| 20260506120507 | 2 | 341 | 0.0 | 3.2 | 0.00 | 0.00 | 0.00 | 72 | 1018.1 |
| 20260506120028 | 2 | 341 | 0.0 | 1.6 | 0.00 | 0.00 | 0.00 | 72 | 1018.0 |
| 20260506115506 | 2 | 341 | 0.0 | 0.0 | 0.00 | 0.00 | 0.00 | 70 | 1017.9 |
| 20260506115006 | 2 | 341 | 0.0 | 0.0 | 0.00 | 0.00 | 0.00 | 70 | 1017.9 |
| 20260506114521 | 2 | 341 | 0.0 | 0.0 | 0.00 | 0.00 | 0.00 | 70 | 1017.8 |
| 20260506114007 | 2 | 341 | 0.0 | 0.0 | 0.00 | 0.00 | 0.00 | 70 | 1017.8 |
| 20260506113508 | 2 | 341 | 0.0 | 0.0 | 0.00 | 0.00 | 0.00 | 70 | 1017.7 |
| 20260506113024 | 2 | 341 | 0.0 | 0.0 | 0.00 | 0.00 | 0.00 | 70 | 1017.6 |
| 20260506112509 | 2 | 341 | 0.0 | 0.0 | 0.00 | 0.00 | 0.00 | 69 | 1017.6 |
| 20260506112007 | 2 | 341 | 0.0 | 0.0 | 0.00 | 0.00 | 0.00 | 70 | 1017.6 |
| 20260506111526 | 2 | 341 | 0.0 | 0.0 | 0.00 | 0.00 | 0.00 | 70 | 1017.6 |
| 20260506111007 | 2 | 341 | 0.0 | 0.0 | 0.00 | 0.00 | 0.00 | 69 | 1017.6 |
| 20260506110509 | 2 | 341 | 0.0 | 0.0 | 0.00 | 0.00 | 0.00 | 68 | 1017.5 |
| 20260506110022 | 3 | 341 | 0.0 | 0.0 | 0.00 | 0.00 | 0.00 | 66 | 1017.6 |
| 20260506105511 | 3 | 341 | 0.0 | 0.0 | 0.00 | 0.00 | 0.00 | 66 | 1017.7 |
| 20260506105007 | 3 | 341 | 0.0 | 0.0 | 0.00 | 0.00 | 0.00 | 66 | 1017.6 |
| 20260506104518 | 3 | 341 | 0.0 | 0.0 | 0.00 | 0.00 | 0.00 | 66 | 1017.6 |
| 20260506104007 | 3 | 341 | 0.0 | 0.0 | 0.00 | 0.00 | 0.00 | 67 | 1017.6 |
| 20260506103510 | 3 | 341 | 0.0 | 0.0 | 0.00 | 0.00 | 0.00 | 67 | 1017.5 |
| 20260506103018 | 3 | 341 | 0.0 | 0.0 | 0.00 | 0.00 | 0.00 | 66 | 1017.4 |
| 20260506102508 | 3 | 341 | 0.0 | 0.0 | 0.00 | 0.00 | 0.00 | 65 | 1017.4 |
| 20260506102011 | 3 | 341 | 0.0 | 0.0 | 0.00 | 0.00 | 0.00 | 65 | 1017.3 |
| 20260506101508 | 3 | 341 | 0.0 | 0.0 | 0.00 | 0.00 | 0.00 | 66 | 1017.3 |
| 20260506101005 | 3 | 341 | 0.0 | 0.0 | 0.00 | 0.00 | 0.00 | 65 | 1017.2 |
| 20260506100503 | 3 | 341 | 0.0 | 0.0 | 0.00 | 0.00 | 0.00 | 64 | 1017.2 |
| 20260506100023 | 4 | 341 | 0.0 | 0.0 | 0.00 | 0.00 | 0.00 | 63 | 1017.2 |
| 20260506095503 | 4 | 341 | 0.0 | 0.0 | 0.00 | 0.00 | 0.00 | 63 | 1017.2 |
| 20260506095004 | 4 | 341 | 0.0 | 1.6 | 0.00 | 0.00 | 0.00 | 64 | 1017.1 |